Location: Claremont
(51.3500°N, 0.3500°W)
Time: 23:42:34
(UTC+00:00)

Daily predictions for brighter satellites

Satellite Brightness Start Highest point End
(mag) Time Altitude Azimuth Time Altitude Azimuth Time Altitude Azimuth
Cosmos 2016 Rocket 4.4 18:31:41 10° SSW 18:37:58 72° WNW 18:44:13 10° N
CREW DRAGON DEMO-1 DEB 2.8 18:41:39 10° W 18:44:41 89° WNW 18:47:44 10° E
USA 102 3.8 18:40:18 10° SE 18:46:50 78° ENE 18:49:25 10° NNW
USA 229 DEB 4.4 18:42:54 10° WSW 18:49:23 57° NW 18:56:19 10° NE
USA 229 4.4 18:42:59 10° WSW 18:49:28 57° NW 18:56:25 10° NE
Cosmos 1782 Rocket 3.6 18:45:24 10° S 18:49:43 57° E 18:54:06 10° NNE
Cosmos 1975 2.8 18:46:42 10° S 18:50:46 71° E 18:54:51 10° NNE
Cosmos 1025 Rocket 3.9 18:46:57 10° N 18:50:53 32° ENE 18:54:50 10° SE
NOSS 3-2 (C) 4.4 18:44:08 10° NW 18:50:58 48° NNE 18:58:44 10° ESE
Cosmos 2233 Rocket 4.0 18:44:44 10° S 18:50:58 83° E 18:57:12 10° N
CZ-4 R/B 2.4 18:47:33 10° S 18:51:41 52° W 18:55:49 10° NNW
Cosmos 1908 Rocket 3.7 18:47:34 10° SSW 18:51:55 82° WNW 18:56:21 10° N
USA 186 2.7 18:49:43 10° SE 18:52:29 29° ENE 18:55:22 10° N
Meteor 2-11 Rocket 4.4 18:47:27 10° S 18:53:34 73° E 18:59:44 10° NNE
Cosmos 2082 Rocket 4.3 18:57:16 10° N 18:59:55 13° NNE 19:02:34 10° NE
NOSS 3-1 (A) 4.1 18:55:54 10° WSW 19:01:31 57° NW 19:08:14 10° NE
Cosmos 1544 3.8 18:57:58 10° SSW 19:01:36 59° WNW 19:05:14 10° N
Cosmos 1937 Rocket 3.5 18:56:33 10° S 19:01:43 60° ESE 19:06:51 10° NNE
OBJECT-B 2.5 19:01:22 13° E 19:03:02 18° ENE 19:05:21 10° NNE
MOS 1 Rocket 3.3 18:58:42 10° NNE 19:03:09 51° E 19:07:22 10° S
Cosmos 1842 3.9 19:02:03 10° NNW 19:05:52 58° W 19:09:39 10° S
FREGAT/IRIS 3.4 19:05:32 15° ESE 19:07:02 25° ENE 19:09:17 10° N
Cosmos 1674 4.1 19:04:34 10° NNE 19:07:38 22° ENE 19:09:42 15° ESE
Cosmos 2297 Rocket 4.4 19:04:31 10° W 19:09:10 25° NW 19:13:50 10° NNE
Cosmos 1975 Rocket 3.2 19:06:30 10° NNW 19:10:52 75° W 19:15:09 10° S
COSMO-SKYMED 1 4.5 19:09:20 10° N 19:13:17 34° WNW 19:17:12 10° SW
NOSS 8 (H) 4.1 19:10:20 10° SSW 19:13:24 59° SE 19:16:24 10° NE
NOSS 8 (E) 4.1 19:10:20 10° SW 19:13:29 83° NW 19:16:32 10° NE
In-Cosmos 22 4.1 19:09:32 10° N 19:14:46 58° ENE 19:20:01 10° SSE
NOSS 2-2 (E) 3.5 19:13:57 10° SSW 19:17:16 40° SE 19:21:03 10° NE
Cosmos 1707 2.6 19:16:32 10° N 19:20:24 80° E 19:24:13 10° SSE
Resurs 01 Rocket 2.9 19:19:17 17° ESE 19:21:30 25° ENE 19:25:07 10° N
H-2A R/B 2.5 19:16:53 10° S 19:21:47 64° WSW 19:26:51 10° NNW
ATLAS 2AS CENTAUR R/B 4.5 19:24:48 13° E 19:24:48 13° E 19:26:41 10° ENE
ARGOS 3.3 19:17:36 10° SSE 19:22:59 80° WSW 19:28:23 10° NNW
Lacrosse 4 Rocket 3.8 19:22:16 10° N 19:23:09 11° NNE 19:24:01 10° NNE
CZ-2C R/B 3.0 19:18:19 10° NNE 19:23:34 43° E 19:28:53 10° S
SJ-6B 2.8 19:21:48 12° SSE 19:25:12 56° ENE 19:28:56 10° N
NOSS 2-2 (D) 3.6 19:22:26 10° SSW 19:25:44 38° SE 19:29:25 10° NE
Sich 1 Rocket 3.6 19:23:25 10° S 19:27:55 82° E 19:32:30 10° NNE
MOS 1 4.3 19:24:11 10° SSE 19:29:50 71° ENE 19:35:33 10° NNW
Cosmos 1048 Rocket 4.1 19:24:45 10° NNW 19:30:01 61° ENE 19:34:10 17° SE
ATLAS CENTAUR R/B 3.8 19:29:05 10° WNW 19:31:49 18° NNW 19:34:30 10° NNE
CENTAUR R/B 3.3 19:24:16 10° NW 19:31:59 65° NE 19:38:33 19° ESE
ATLAS 3B R/B 3.6 19:31:41 10° NW 19:37:55 38° NNE 19:42:49 17° E
ARIANE 5 R/B 4.0 19:37:43 20° E 19:38:49 22° ENE 19:42:10 10° N
SL-08 RB Rocket 3.9 19:34:45 10° S 19:39:21 75° WSW 19:43:57 10° NNW
Cosmos 2263 Rocket 2.5 19:33:59 10° SW 19:39:32 69° WNW 19:45:09 10° NNE
USA 238 DEB 3.8 19:32:51 10° NW 19:40:03 84° NE 19:45:38 19° SE
USA 238 3.8 19:32:57 10° NW 19:40:09 83° NE 19:45:43 20° SE
ISS -2.5 19:38:37 10° SSW 19:41:13 25° SSE 19:41:13 25° SSE
Abrixas rocket 2.3 19:39:23 10° WSW 19:42:07 44° S 19:42:32 40° SSE
SJ 16-02 3.6 19:39:40 10° WSW 19:43:25 27° NW 19:47:12 10° N
Cosmos 1513 Rocket 4.4 19:37:21 10° S 19:43:38 84° E 19:49:51 10° N
Cosmos 1844 Rocket 3.1 19:41:47 10° S 19:46:51 37° ESE 19:51:58 10° NE
Okean 2 Rocket 3.0 19:43:32 10° S 19:48:03 85° E 19:52:33 10° NNE
Lacrosse 5 rocket 2.4 19:47:26 10° W 19:51:37 45° NNW 19:55:14 14° ENE
Cosmos 1464 Rocket 3.9 19:45:39 10° S 19:51:47 89° WNW 19:58:00 10° N
Okean 1 Rocket 3.7 19:51:22 30° ESE 19:52:29 35° E 19:56:36 10° NNE
Ariane Rocket 3.3 19:51:02 10° S 19:56:04 66° WSW 20:01:09 10° NNW
Cosmos 1092 Rocket 4.0 19:50:03 10° N 19:56:08 61° ENE 20:00:15 22° SSE
Meteor 1-12 Rocket 4.4 19:53:27 10° SSW 19:59:23 84° WNW 20:05:14 10° NNE
Meteor 1-15 Rocket 4.3 19:54:04 10° S 19:59:32 56° E 20:05:08 10° NNE
Resurs 1-3 3.5 19:57:58 27° SSE 20:00:17 73° ENE 20:04:42 10° N
Cosmos 1300 Rocket 3.7 19:56:40 10° SSW 20:01:04 75° WNW 20:05:31 10° N
Cosmos 494 Rocket 3.9 19:57:46 10° NNW 20:03:03 73° ENE 20:05:36 31° SE
Cosmos 2026 Rocket 4.2 19:57:24 10° N 20:03:38 54° ENE 20:06:56 28° SE
Meteor 2-13 Rocket 4.4 19:58:42 10° N 20:04:54 72° ENE 20:09:01 22° SSE
CZ-2C R/B 4.0 20:00:41 10° NNE 20:04:54 41° E 20:05:30 39° ESE
Cosmos 2298 Rocket 3.9 20:00:15 10° SSW 20:05:32 70° ESE 20:10:52 10° NNE
Cosmos 1833 Rocket 3.7 20:00:46 10° NNW 20:05:49 32° NE 20:07:47 25° E
SPOT 3 Rocket 3.4 20:03:38 25° SSE 20:06:40 78° ENE 20:11:50 10° NNW
NOSS 3-2 (A) 4.2 20:00:56 10° NW 20:08:18 73° SW 20:13:56 23° SSE
MetOp-A 4.4 20:03:47 10° S 20:09:02 67° WSW 20:14:24 10° NNW
NOSS 2-2 (C) 3.1 20:06:39 10° SW 20:10:12 86° NW 20:14:20 10° NE
Cosmos 1536 Rocket 4.2 20:10:32 10° NNW 20:14:53 56° W 20:18:27 15° S
Cosmos 1626 2.5 20:14:35 10° N 20:17:51 47° NE 20:17:51 47° NE
Terra 3.5 20:19:12 18° ENE 20:19:13 18° NE 20:22:24 10° NNE
Cosmos 1892 Rocket 4.1 20:16:09 10° N 20:20:06 39° ENE 20:20:06 39° ENE
CREW DRAGON DEMO-1 DEB 3.3 20:17:20 10° W 20:19:51 57° W 20:19:51 57° W
USA 186 4.4 20:20:54 10° SW 20:23:16 20° W 20:25:43 10° NW
DMSP B5D2-2 4.3 20:20:40 10° NNE 20:25:58 74° WNW 20:31:15 10° SSW
USA 234 3.3 20:20:00 10° ENE 20:26:24 53° SE 20:32:46 10° SW
Meteor 2-5 Rocket 3.6 20:22:24 10° NNW 20:28:03 87° ENE 20:30:35 35° SSE
Cosmos 2151 Rocket 4.3 20:24:58 10° SSW 20:29:21 54° WNW 20:33:47 10° N
OBJECT-B 2.2 20:34:34 31° WSW 20:35:11 35° W 20:38:13 10° NNW
Cosmos 2150 Rocket 4.2 20:30:19 10° SSW 20:35:42 78° WNW 20:41:12 10° NNE
Cosmos 1805 3.1 20:35:56 83° SW 20:36:03 85° W 20:40:00 10° N
SPOT 5 3.8 20:40:10 35° ENE 20:40:14 35° ENE 20:45:01 10° N
NOSS 3-2 (C) 4.1 20:35:04 10° NW 20:42:26 70° SW 20:46:12 35° SSE
Cosmos 1674 4.0 20:39:43 10° NNW 20:43:17 37° W 20:44:32 29° SW
Meteor 1-22 Rocket 4.2 20:43:04 48° SSE 20:44:37 67° E 20:50:37 10° NNE
Cosmos 2082 Rocket 3.0 20:40:38 10° NNW 20:45:47 35° NE 20:46:33 34° ENE
Cosmos 1125 Rocket 3.4 20:41:06 10° SSW 20:46:25 89° WNW 20:51:47 10° NNE
Okean 1-7 Rocket 4.0 20:42:43 10° N 20:46:41 51° NE 20:46:41 51° NE
Cosmos 1733 4.0 20:52:18 47° N 20:52:18 47° N 20:55:06 10° N
SL-14 R/B 3.6 20:48:14 10° NNW 20:51:36 63° NNW 20:51:36 63° NNW
COSMOS 2406 3.1 20:47:55 10° NNW 20:53:38 73° ENE 20:54:20 65° ESE
Meteor 1-24 Rocket 3.7 20:49:25 10° NNW 20:54:54 76° W 20:56:22 50° S
CRYOSAT 2 4.2 20:51:58 10° N 20:56:55 85° E 20:57:03 83° SE
ERS-1 Rocket 3.3 20:57:24 49° NE 20:57:24 49° NE 21:01:56 10° N
Resurs 01 Rocket 2.4 20:56:51 42° SW 20:57:45 48° W 21:02:06 10° NNW
Cosmos 2098 Rocket 4.1 20:55:42 10° N 21:02:57 62° ENE 21:03:50 57° ESE
Lacrosse 4 Rocket 2.8 20:59:23 10° NNW 21:02:11 29° NNE 21:02:11 29° NNE
CZ-2C R/B 4.1 20:58:48 10° N 21:03:49 37° WNW 21:08:52 10° SW
Landsat 7 3.8 21:04:41 81° W 21:04:41 81° W 21:09:28 10° NNW
Cosmos 2266 Rocket 4.1 20:59:41 10° N 21:05:35 51° ENE 21:05:35 51° ENE
Exosat Rocket 3.7 21:01:36 10° SW 21:07:01 71° WNW 21:12:02 10° NNE
Cosmos 1766 4.3 21:09:00 45° WNW 21:09:00 45° WNW 21:12:30 10° N
Cosmos 1655 Rocket 3.9 21:05:46 10° N 21:12:02 71° ENE 21:12:30 68° ESE
ATLAS CENTAUR R/B 4.1 21:11:08 10° NNW 21:12:07 11° N 21:13:06 10° NNE
ATLAS 2AS CENTAUR R/B 3.0 21:04:39 10° SSW 21:12:21 56° ESE 21:19:58 10° NE
IGS 5A 4.2 21:13:35 52° NW 21:13:35 52° NW 21:16:59 10° NNW
SPOT 1/Viking Rocket 3.5 21:14:25 84° WSW 21:14:25 84° WSW 21:19:38 10° NNW
ARIANE 5 R/B 3.2 21:15:16 52° W 21:15:16 52° W 21:19:15 10° NNW
Cosmos 2278 Rocket 4.0 21:22:33 18° NE 21:22:33 18° NE 21:24:04 10° NE
Cosmos 1844 4.0 21:13:09 10° SW 21:18:48 65° NW 21:24:26 10° NNE
Cosmos 1634 Rocket 4.4 21:19:01 27° SSW 21:22:24 61° WNW 21:28:33 10° N
CENTAUR R/B 3.7 21:15:08 10° NW 21:22:49 50° WSW 21:25:44 38° SSW
Cosmos 2285 Rocket 4.4 21:21:46 10° SW 21:27:59 60° WNW 21:34:18 10° NNE
Spot 2 Rocket 3.9 21:28:19 57° W 21:28:19 57° W 21:33:14 10° NNW
ATLAS 3B R/B 2.5 21:22:30 10° NW 21:29:22 90° NW 21:30:03 75° SE
Cosmos 1844 Rocket 3.6 21:25:19 10° SW 21:30:40 46° NW 21:36:05 10° NNE
Lacrosse 5 rocket 2.7 21:27:13 10° WNW 21:30:50 40° NNW 21:30:50 40° NNW
Cosmos 909 Rocket 4.0 21:40:22 10° NW 21:46:53 84° N 21:46:53 84° N
Cosmos 1833 Rocket 3.1 21:44:33 10° NW 21:49:28 58° W 21:49:28 58° W
Cosmos 2251 Rocket 4.1 21:49:05 10° NNW 21:53:17 55° NW 21:53:17 55° NW
Terra 3.0 21:58:07 40° NNW 21:58:07 40° NNW 22:01:12 10° NNW
USA 234 3.3 22:03:06 10° ENE 22:09:38 74° NNW 22:16:09 10° WSW
SPOT 5 4.3 22:19:24 37° WNW 22:19:24 37° WNW 22:23:14 10° NNW
Cosmos 2082 Rocket 3.3 22:24:40 10° NW 22:28:23 38° WNW 22:28:23 38° WNW
NOSS 3-4 (A) 4.2 22:41:29 48° N 22:41:29 48° N 22:46:34 10° NE
NOSS 3-4 (C) 4.2 22:41:39 48° NNE 22:41:39 48° NNE 22:46:40 10° NE
Lacrosse 4 Rocket 4.3 22:38:01 10° NW 22:38:29 13° NW 22:38:29 13° NW
CZ-4C R/B 4.3 23:02:00 19° NE 23:02:00 19° NE 23:03:42 10° NE
Cosmos 2278 Rocket 3.5 23:04:22 36° NNW 23:04:22 36° NNW 23:08:18 10° NNE
ATLAS 2AS CENTAUR R/B 3.5 22:59:08 28° WSW 23:03:30 58° NW 23:11:11 10° NE
ATLAS 3B R/B 4.4 23:13:56 10° WNW 23:17:17 22° W 23:17:17 22° W
NOSS 3-1 (C) 4.4 23:21:43 10° NW 23:28:38 55° NE 23:28:49 55° NE
USA 234 4.1 23:45:58 10° ENE 23:54:29 39° NW 23:58:39 10° WNW
